Volver al catálogo

GONETS M 12

M22

ActivoComunicacionesPO
NORAD 40553·PAYLOAD·🇷🇺 Russia

Lanzado Mar 31, 2015 desde Plesetsk Cosmodrome

Loading…

Próximos Pases (próximas 24 horas)

TLE

ActualizadoSource: Space-Track

Época: Sep 14, 2026, 13:47 UTC

1 40553U 15020B   26257.57472122  .00000003  00000-0 -53921-4 0  9995
2 40553  82.4952 336.4499 0016037 149.2906 210.9115 12.42893434519830

Sigue GONETS M 12 en tiempo real con AllMySat

Download on the App Store